Skip Page Navigation
NASA JPL Caltech
NASA Logo - Jet Propulsion Laboratory + View the NASA Portal
+ Center for Near-Earth Object Studies
JPL Home Earth Solar System Stars & Galaxies Technology
JPL Solar System Dynamics
BODIES ORBITS EPHEMERIDES TOOLS PHYSICAL DATA DISCOVERY FAQ SITE MAP
IMPORTANT: The SSD Announcement email list is now available. Major changes are coming in the near future, including possible hostname and/or URL changes. To be notified of such changes, subscribe to this email list.

Please visit this page for more details.


JPL Small-Body Database Browser
Search: [ help ]  
324372 (2006 RW2)
Classification: Main-belt Asteroid          SPK-ID: 2324372
Ephemeris | Orbit Diagram | Orbital Elements | Mission Design | Physical Parameters | Discovery Circumstances | Close-Approach Data ]

[ show orbit diagram ]
Orbital Elements at Epoch 2458600.5 (2019-Apr-27.0) TDB
Reference: JPL 11 (heliocentric ecliptic J2000)
 Element Value Uncertainty (1-sigma)   Units 
e .1952571921857512 6.8741e-08  
a 2.196260464825646 1.0417e-08 au
q 1.767424813155218 1.517e-07 au
i 3.334908657896182 6.5539e-06 deg
node 36.83882246486147 0.00013243 deg
peri 268.8432413599731 0.00013446 deg
M 344.5742724010555 2.0074e-05 deg
tp 2458651.440986354707
(2019-Jun-16.94098635)
6.6207e-05 TDB
period 1188.842145050547
3.25
8.4583e-06
2.316e-08
d
yr
n .3028156441952969 2.1545e-09 deg/d
Q 2.625096116496075 1.2451e-08 au
  Orbit Determination Parameters
   # obs. used (total)      166  
   data-arc span      5811 days (15.91 yr)  
   first obs. used      2003-10-21  
   last obs. used      2019-09-18  
   planetary ephem.      DE431  
   SB-pert. ephem.      SB431-N16  
   condition code      0  
   norm. resid. RMS      .66759  
   source      ORB  
   producer      Otto Matic  
   solution date      2019-Sep-24 06:13:17  

Additional Information
 Earth MOID = .755629 au 
 Jupiter MOID = 2.61927 au 
 T_jup = 3.641 
[ show covariance matrix ]

Ephemeris | Orbit Diagram | Orbital Elements | Mission Design | Physical Parameters | Discovery Circumstances | Close-Approach Data ]

Physical Parameter Table
Parameter Symbol Value Units Sigma Reference Notes
absolute magnitude H 17.7   n/a MPO338994  

324372 (2006 RW2)          Discovered 2006-Sep-12 by LINEAR at Socorro
Reference: 20120406/Numbers.arcLast Updated: 2012-04-09

[ show close-approach data ]
Ephemeris | Orbit Diagram | Orbital Elements | Mission Design | Physical Parameters | Discovery Circumstances | Close-Approach Data ]
ABOUT SSD CREDITS/AWARDS PRIVACY/COPYRIGHT GLOSSARY LINKS
FirstGov
(server date/time)  
NASA Home Page
Site Manager:   Ryan S. Park
Webmaster  Alan B. Chamberlin